GEFSSE_con_probscp_090.txt.gz
Probability
16 12 10 8 4 2 1 1 0 0 0 0 0 0 0 0 0 0 0 0 0 0 0 0 0 0 0 0 0 0 0 0 0 0 0 0 0 0 0 0 0 0 0
23 16 11 8 5 3 2 2 1 0 0 0 0 0 0 0 0 0 0 0 0 0 0 0 0 0 0 0 0 0 0 0 0 0 0 0 0 0 0 0 0 0 0
29 18 9 7 5 4 4 3 1 0 0 0 0 0 0 0 0 0 0 0 0 0 0 0 0 0 0 0 0 0 0 0 0 0 0 0 0 0 0 0 0 0 0
25 15 9 9 6 5 5 4 1 0 0 0 1 1 1 1 0 0 0 0 0 0 0 0 0 0 0 0 0 0 0 0 0 0 0 0 0 0 0 0 0 0 0
17 15 15 14 10 8 8 6 3 1 1 1 2 2 2 2 1 1 0 0 0 0 0 0 0 0 0 0 0 0 0 0 0 0 0 0 0 0 0 0 0 0 0
20 19 20 20 15 12 9 7 5 3 2 2 3 3 3 3 3 2 1 0 0 0 0 0 0 0 0 0 0 0 0 0 0 0 0 0 0 0 0 0 0 0 0
30 27 24 23 19 14 10 7 5 3 2 2 3 3 3 3 4 4 3 2 2 3 3 1 0 0 0 0 0 0 0 0 0 0 0 1 1 0 0 0 0 0 0
43 37 30 26 23 17 13 9 6 3 1 1 2 3 4 5 5 6 7 7 7 8 8 5 3 1 1 0 0 0 0 0 0 0 1 4 4 2 1 1 0 0 0
54 48 37 33 31 24 17 13 10 6 3 2 2 3 5 7 7 8 11 13 15 15 14 10 7 5 4 2 0 0 0 0 0 0 2 10 15 12 5 2 1 0 0
63 56 46 42 39 30 23 20 18 15 11 9 8 8 8 9 11 14 18 23 26 23 19 15 13 11 9 6 2 1 0 0 0 0 2 17 33 29 15 6 2 0 0
66 61 55 52 43 31 30 33 30 25 22 19 18 19 17 13 14 21 31 42 43 35 28 24 20 18 14 9 5 3 1 1 0 0 6 29 53 50 31 15 5 1 0
67 63 62 61 49 35 39 48 39 33 37 32 30 35 31 21 18 27 48 65 63 52 44 37 30 25 19 13 12 10 6 1 1 1 15 47 70 66 48 28 13 4 1
67 63 67 70 59 45 52 59 47 46 56 50 45 52 48 36 32 40 61 78 76 67 57 48 41 33 24 18 21 21 10 2 2 6 25 58 77 71 56 39 23 10 5
67 64 69 76 72 63 65 68 62 62 70 68 66 67 64 58 54 56 69 81 81 76 65 56 51 45 34 26 26 25 16 7 6 11 29 56 72 68 57 44 30 16 9
70 69 74 80 81 78 78 78 75 74 77 80 83 83 80 78 74 72 75 80 81 77 71 64 59 56 47 37 29 26 23 18 14 17 30 48 61 62 55 43 30 18 12
76 78 82 85 87 88 85 82 81 80 82 84 88 91 90 87 85 82 79 77 78 76 72 68 64 62 55 44 35 31 31 28 24 23 30 41 50 53 50 41 30 20 16
80 85 88 88 90 90 87 84 82 81 81 83 86 89 89 86 85 83 79 76 77 74 68 64 63 60 53 45 40 37 37 37 33 29 31 36 41 42 40 37 33 26 21
82 86 88 86 86 85 84 82 80 78 78 78 80 81 79 76 75 73 71 71 71 67 59 56 55 51 45 41 40 39 39 38 36 33 32 35 37 36 34 34 34 30 25
81 83 82 80 79 77 76 76 76 75 73 72 72 70 63 58 57 57 58 60 58 53 49 46 45 41 35 32 31 32 31 32 32 32 32 34 36 37 35 33 31 27 24
76 77 76 76 76 74 73 74 74 72 69 65 62 56 47 41 41 43 45 46 45 43 40 38 35 31 27 22 18 17 19 20 23 25 26 27 30 34 35 34 31 26 23
65 67 70 72 74 73 72 71 70 67 61 54 48 42 34 31 33 34 33 35 35 36 34 31 28 24 20 16 10 8 8 10 13 17 20 20 20 24 30 33 35 32 29
46 51 59 66 69 66 63 60 59 55 48 40 36 31 26 24 25 25 26 27 30 31 29 27 25 22 18 13 9 7 5 4 6 10 15 16 14 16 23 29 33 35 33
30 35 44 55 57 54 49 46 43 39 33 28 28 27 21 16 16 18 20 22 26 27 26 25 25 22 16 11 10 10 10 10 9 10 10 11 12 14 18 21 25 30 31
18 22 32 42 45 41 38 37 34 28 23 22 23 21 18 13 10 12 15 18 21 22 20 20 20 19 15 12 12 14 16 17 15 11 6 6 11 16 17 17 19 24 27
8 14 25 35 36 33 32 31 29 24 20 19 17 15 13 10 6 7 11 14 15 14 12 12 13 13 12 12 14 16 17 18 16 10 4 4 9 15 17 17 18 22 24
5 10 21 32 34 32 29 27 25 22 19 16 13 11 10 8 4 4 7 11 11 9 7 7 9 10 10 12 14 15 17 18 16 10 5 3 6 13 17 18 20 21 23

GEFSSE_con_probscp_096.txt.gz
Probability
3 9 17 22 21 14 9 6 5 3 2 2 1 0 0 0 0 0 0 0 0 0 0 0 0 0 0 0 0 0 0 0 0 0 0 0 0 0 0 0 0 0 0
8 13 21 26 23 16 11 8 6 4 2 1 0 0 0 0 0 0 0 0 0 0 0 0 0 0 0 0 0 0 0 0 0 0 0 0 0 0 0 0 0 0 0
16 17 23 28 27 21 15 11 8 5 1 0 0 0 0 0 0 0 0 0 0 0 0 0 0 0 0 0 0 0 0 0 0 0 0 0 0 0 0 0 0 0 0
18 17 21 29 32 27 21 15 11 6 2 0 0 0 0 0 0 0 0 0 0 0 0 0 0 0 0 0 0 0 0 0 0 0 0 0 0 0 0 0 0 0 0
15 15 22 32 36 32 27 21 15 10 5 1 0 0 0 0 0 0 0 0 0 0 0 0 0 0 0 0 0 0 0 0 0 0 0 0 0 0 0 0 0 0 0
14 15 25 38 42 38 33 27 21 14 8 3 1 1 2 1 0 0 0 0 0 0 0 0 0 0 0 0 0 0 0 0 0 0 0 0 0 0 0 0 0 0 0
16 17 29 44 49 45 40 33 25 17 12 8 5 3 2 1 0 0 0 0 0 0 0 0 0 0 0 0 0 0 0 0 0 0 0 0 0 0 0 0 0 0 0
19 21 28 40 47 48 45 38 29 21 17 15 11 6 3 2 1 0 1 1 1 1 1 1 1 0 0 0 0 0 0 0 0 0 0 0 0 0 0 0 0 0 0
20 23 25 29 35 39 40 39 32 25 23 21 17 11 6 4 2 2 3 3 3 4 4 4 3 1 0 0 0 0 0 0 0 0 0 0 0 0 0 0 0 0 0
21 23 23 24 26 26 28 30 30 27 24 22 19 14 9 6 4 5 6 5 5 6 9 10 7 3 1 1 0 0 0 0 0 0 0 0 1 2 3 3 2 0 0
27 25 25 26 25 22 21 22 24 23 21 19 17 15 11 6 4 4 6 6 8 12 15 16 12 7 5 4 2 1 1 0 0 0 0 1 3 6 9 10 8 3 1
35 31 27 26 25 24 23 23 23 21 20 19 17 15 13 8 4 4 7 10 14 20 24 23 20 17 14 11 7 4 3 2 1 0 1 2 6 13 19 21 16 10 6
38 35 30 28 27 26 27 30 28 23 23 23 20 19 18 13 8 8 12 17 24 31 36 36 34 30 26 20 15 11 8 6 3 2 3 4 11 23 34 33 26 19 16
44 41 39 39 37 32 33 38 36 32 33 34 30 30 28 21 16 16 18 23 32 42 48 48 46 42 34 27 22 17 13 10 8 6 5 6 14 30 42 42 36 30 27
54 51 49 49 47 42 43 46 45 43 45 45 43 43 39 30 24 22 22 25 34 45 49 48 46 43 36 27 22 19 16 14 13 9 6 5 14 29 41 45 41 36 34
61 58 54 54 56 56 56 55 52 50 49 49 49 48 43 34 29 28 26 26 32 41 43 40 37 36 33 26 21 19 16 16 16 10 5 6 14 27 39 44 41 34 32
55 57 58 59 62 62 61 58 52 46 42 42 43 42 38 34 31 31 29 27 31 36 36 31 28 28 28 26 23 20 17 17 16 11 7 8 13 21 31 38 36 30 28
45 50 56 57 52 50 51 49 43 37 34 33 33 31 30 29 28 26 24 23 24 26 25 23 22 21 23 23 20 18 16 15 13 10 9 11 12 13 19 25 27 26 26
37 40 44 43 35 30 30 32 31 28 26 25 24 22 20 20 18 16 14 13 13 12 13 15 15 15 16 16 12 11 11 10 9 8 8 9 9 9 10 13 17 21 22
29 30 30 28 22 16 15 17 18 19 17 16 15 13 12 10 8 7 7 6 5 5 6 9 10 9 10 9 6 6 6 6 6 5 5 5 5 6 5 6 10 14 16
21 21 19 16 13 10 8 8 8 9 8 8 7 6 5 4 3 4 4 4 3 3 4 6 7 7 6 5 4 3 4 4 4 4 3 3 3 3 2 2 5 9 11
11 11 9 7 6 6 5 4 4 4 4 3 3 2 1 1 1 2 3 3 3 3 4 5 6 6 5 4 3 3 3 3 3 2 2 2 2 3 3 3 4 6 7
4 4 3 2 3 3 3 2 2 2 2 1 1 0 0 0 0 1 1 1 1 2 3 3 4 3 3 2 2 2 2 2 1 1 1 1 1 1 2 3 3 3 3
1 1 1 1 2 1 1 1 1 1 1 0 0 0 0 0 0 0 0 0 0 1 1 1 2 1 1 1 1 1 1 1 0 0 0 0 0 0 1 1 1 1 1
2 1 1 1 1 0 0 0 0 0 0 0 0 0 0 0 0 0 1 0 0 0 0 0 0 0 0 0 0 0 0 0 0 0 0 0 0 0 0 0 0 0 0
2 1 2 2 1 0 0 0 0 0 0 0 0 0 0 0 0 0 1 0 0 0 0 0 0 0 0 0 0 0 0 0 0 0 0 0 0 0 0 0 0 0 0

GEFSSE_con_probscp_102.txt.gz
Probability
4 8 13 14 14 15 18 22 23 21 18 15 12 9 5 2 0 0 0 0 0 0 0 0 0 0 0 0 0 0 0 0 0 0 0 0 0 0 0 0 0 0 0
9 12 14 15 15 15 17 18 18 18 17 15 12 9 5 2 0 0 0 0 0 0 0 0 0 0 0 0 0 0 0 0 0 0 0 0 0 0 0 0 0 0 0
19 17 15 14 15 16 16 15 14 13 14 14 12 8 4 1 0 0 0 0 0 0 0 0 0 0 0 0 0 0 0 0 0 0 0 0 0 0 0 0 0 0 0
25 21 17 16 17 20 21 18 15 12 11 10 9 7 4 1 0 0 0 0 0 0 0 0 0 0 0 0 0 0 0 0 0 0 0 0 0 0 0 0 0 0 0
25 22 22 23 24 25 26 22 18 14 10 7 6 6 4 2 1 1 0 0 0 0 0 0 0 0 0 0 0 0 0 0 0 0 0 0 0 0 0 0 0 0 0
22 21 25 31 31 29 27 24 21 17 12 7 5 4 3 2 2 1 0 0 0 0 0 0 0 0 0 0 0 0 0 0 0 0 0 0 0 0 0 0 0 0 0
24 23 26 33 35 32 29 25 22 19 15 10 6 3 2 1 1 1 1 0 0 0 0 0 0 0 0 0 0 0 0 0 0 0 0 0 0 0 0 0 0 0 0
31 30 31 35 37 36 33 29 24 21 18 14 10 6 2 0 0 1 1 1 0 0 0 0 0 0 0 0 0 0 0 0 0 0 0 0 0 0 0 0 0 0 0
37 36 35 36 38 38 37 36 31 26 22 20 17 12 7 3 1 2 3 2 1 0 0 0 0 1 1 1 0 0 0 0 0 0 0 0 0 0 0 0 0 0 0
38 36 36 38 39 38 38 40 38 32 27 24 22 19 13 8 6 5 5 3 1 0 0 0 0 1 2 2 1 0 0 0 0 0 0 0 0 0 0 0 0 0 1
33 31 32 37 40 39 37 38 39 36 33 29 25 23 20 15 12 11 9 6 2 0 0 0 0 0 1 2 2 2 1 0 0 0 0 0 0 0 0 0 0 0 1
26 25 26 31 36 37 35 34 35 35 34 31 27 26 27 24 20 18 17 12 7 3 2 2 2 2 4 5 6 7 5 2 0 0 0 0 0 0 0 0 0 1 1
24 24 24 27 31 32 31 30 30 30 30 29 27 29 32 29 25 24 24 21 15 11 8 6 6 8 11 12 10 9 7 3 1 1 1 1 1 1 1 0 0 1 1
26 26 27 28 29 30 28 26 25 25 25 25 25 29 31 29 26 26 26 23 20 17 13 10 11 15 19 18 13 9 6 4 2 3 3 2 2 3 2 1 1 2 2
24 25 24 23 25 27 24 20 20 21 21 20 22 26 29 28 25 23 21 17 14 12 11 12 15 19 24 24 17 10 6 4 2 2 3 4 6 7 6 4 3 3 3
21 20 18 17 19 20 16 13 14 16 17 17 18 21 23 22 20 18 14 11 8 7 10 14 16 19 25 27 22 13 9 7 6 4 4 7 10 12 12 9 7 6 6
20 18 16 16 15 12 9 7 7 9 12 13 12 12 13 12 11 10 9 8 8 6 10 15 15 17 21 24 20 15 14 13 12 8 7 9 13 15 14 13 11 11 12
16 15 15 15 12 8 4 2 2 4 6 7 5 4 4 4 4 4 5 6 5 4 8 12 13 13 15 16 15 15 15 15 13 10 9 10 11 12 14 14 14 14 14
10 9 9 9 8 5 2 0 0 1 2 3 1 1 1 1 1 1 3 3 2 2 4 7 8 8 10 11 11 11 11 10 8 7 7 7 7 9 12 14 15 14 12
4 4 4 5 5 2 1 0 0 0 1 1 0 0 0 0 0 1 2 2 1 1 1 1 2 3 4 6 8 8 7 5 4 3 4 4 5 7 9 11 15 16 15
1 2 3 3 2 1 1 1 0 0 0 0 0 0 0 0 0 0 1 1 1 0 0 0 0 0 1 2 5 6 5 3 2 1 2 4 5 6 7 8 12 17 20
0 1 2 2 1 1 1 1 0 0 0 0 0 0 0 0 0 0 0 0 0 0 0 0 0 0 0 1 3 5 5 3 1 1 2 3 4 6 7 7 10 14 17
0 0 1 1 0 0 0 0 0 0 0 0 0 0 0 0 0 0 0 0 0 0 0 0 0 0 0 0 1 3 3 2 1 0 1 1 3 5 7 8 8 9 11
0 0 0 0 0 0 0 0 0 0 0 0 0 0 0 0 0 0 0 0 0 0 0 0 0 0 0 0 0 1 1 1 0 0 0 0 1 3 5 6 6 7 8
0 0 0 0 0 0 0 0 0 0 0 0 0 0 0 0 0 0 0 0 0 0 0 0 0 0 0 0 0 0 0 0 0 0 0 0 0 1 2 4 5 7 7
0 0 0 0 0 0 0 0 0 0 0 0 0 0 0 0 0 0 0 0 0 0 0 0 0 0 0 0 0 0 0 0 0 0 0 0 0 0 1 3 5 6 7

GEFSSE_con_probscp_108.txt.gz
Probability
1 3 6 5 4 4 6 8 11 13 11 7 3 1 0 0 0 0 0 0 0 0 0 0 0 0 0 0 0 0 0 0 0 0 0 0 0 0 0 0 0 0 0
3 4 7 6 4 5 7 9 12 14 13 9 4 1 0 0 0 0 0 0 0 0 0 0 0 0 0 0 0 0 0 0 0 0 0 0 0 0 0 0 0 0 0
4 5 7 6 6 6 7 9 12 15 16 12 6 2 1 0 0 0 0 0 0 0 0 0 0 0 0 0 0 0 0 0 0 0 0 0 0 0 0 0 0 0 0
4 5 7 7 6 5 5 7 9 13 15 13 7 3 2 0 0 0 0 0 0 0 0 0 0 0 0 0 0 0 0 0 0 0 0 0 0 0 0 0 0 0 0
2 5 8 9 6 3 3 4 6 8 11 10 6 2 1 0 0 0 0 0 0 0 0 0 0 0 0 0 0 0 0 0 0 0 0 0 0 0 0 0 0 0 0
3 6 11 12 9 6 4 5 6 6 7 6 3 0 0 0 0 0 0 0 0 0 0 0 0 0 0 0 0 0 0 0 0 0 0 0 0 0 0 0 0 0 0
4 7 13 15 14 11 8 8 9 8 6 4 2 0 0 0 0 0 0 0 0 0 0 0 0 0 0 0 0 0 0 0 0 0 0 0 0 0 0 0 0 0 0
4 7 12 14 14 13 12 12 12 10 9 7 4 1 0 0 0 0 0 0 0 0 0 0 0 0 0 0 0 0 0 0 0 0 0 0 0 0 0 0 0 0 0
5 7 10 11 12 12 12 13 13 13 12 9 6 3 1 1 0 0 0 1 1 0 0 0 0 0 0 0 0 0 0 0 0 0 0 0 0 0 0 0 0 0 0
7 8 10 13 14 14 13 15 17 17 15 10 6 4 4 2 1 1 2 4 2 0 0 0 1 1 1 0 0 0 0 0 0 0 0 0 0 0 0 0 0 0 0
15 14 15 18 18 16 17 21 23 21 17 13 10 11 11 9 6 6 8 9 5 2 0 1 2 3 2 1 0 0 0 0 0 0 2 3 2 0 0 0 0 0 0
29 26 23 21 19 18 22 28 28 26 22 17 16 20 22 20 16 16 19 16 10 5 4 6 7 7 6 5 2 1 0 0 0 0 4 8 4 0 0 0 0 0 0
38 35 30 24 22 24 28 31 31 32 31 24 21 26 29 28 25 26 27 25 19 15 15 17 17 14 12 10 7 3 1 0 0 1 7 11 6 1 0 0 0 0 0
40 36 31 29 30 32 35 35 32 34 34 30 27 28 31 31 31 33 34 31 28 27 27 28 28 23 19 16 11 7 4 2 2 3 9 14 10 3 1 0 0 0 1
43 38 34 34 36 37 38 35 31 30 32 31 30 29 30 30 32 36 38 36 32 30 31 33 34 32 29 23 15 11 9 7 6 6 10 14 12 6 3 1 1 1 2
43 40 37 35 34 34 32 28 25 25 27 26 26 26 26 26 27 30 34 33 29 26 28 31 33 34 34 28 18 14 13 13 11 10 11 12 11 7 5 4 4 4 4
38 37 33 27 25 25 23 19 18 18 18 18 19 20 20 19 18 19 22 23 23 22 23 25 24 25 28 26 22 19 19 18 16 14 13 14 12 9 8 7 8 11 11
33 31 25 17 16 18 16 14 12 11 10 10 10 12 13 11 9 10 13 15 16 16 17 17 17 18 20 22 22 22 22 21 18 15 13 16 18 17 15 14 15 19 20
27 25 19 14 12 13 12 11 9 7 6 5 4 6 7 7 6 7 9 11 11 13 13 13 14 16 18 18 16 16 18 18 17 15 13 15 21 25 24 22 22 25 26
20 19 15 12 10 9 9 8 7 6 5 3 1 2 3 4 5 6 7 8 9 11 11 10 11 14 16 15 11 9 10 11 14 15 13 14 19 24 25 25 28 30 32
15 13 10 8 6 6 6 6 5 5 4 1 0 1 2 3 4 4 4 5 8 9 8 8 10 10 11 13 11 7 4 6 10 12 12 14 16 19 23 26 31 37 40
11 9 6 4 4 4 4 4 3 3 2 1 0 1 2 2 2 2 2 2 4 5 4 4 7 7 8 10 10 6 3 5 7 8 10 13 16 20 25 28 32 38 41
7 6 4 3 3 3 3 3 3 2 1 0 0 1 2 2 2 1 1 1 1 2 2 3 4 4 5 7 7 5 3 4 6 7 8 11 15 20 23 25 27 31 34
3 3 2 2 2 2 2 2 2 1 1 0 0 1 3 3 3 3 2 2 2 2 3 4 3 3 3 4 6 5 2 3 5 5 6 8 11 14 17 19 22 25 28
1 1 1 2 3 2 2 2 2 2 1 1 1 2 3 4 4 4 4 5 5 5 6 6 4 3 2 2 4 4 1 1 2 2 3 5 7 8 9 14 19 24 26
0 0 1 2 4 3 1 2 3 3 2 2 2 2 2 2 3 4 4 6 6 6 6 6 5 4 3 3 3 2 1 0 0 1 1 4 6 6 7 11 18 24 28

GEFSSE_con_probscp_114.txt.gz
Probability
13 9 7 6 4 2 0 0 0 0 0 0 0 0 0 0 0 0 0 0 0 0 0 0 0 0 0 0 0 0 0 0 0 0 0 0 0 0 0 0 0 0 0
15 11 10 8 5 3 1 0 0 0 0 0 0 0 0 0 0 0 0 0 0 0 0 0 0 0 0 0 0 0 0 0 0 0 0 0 0 0 0 0 0 0 0
15 13 12 10 7 5 3 1 0 0 0 0 0 0 0 0 0 0 0 0 0 0 0 0 0 0 0 0 0 0 0 0 0 0 0 0 0 0 0 0 0 0 0
13 13 12 11 9 6 3 1 1 0 1 2 2 1 1 1 1 1 0 0 0 0 0 0 0 0 0 0 0 0 0 0 0 0 0 0 0 0 0 0 0 0 0
12 12 13 14 12 9 5 4 2 2 2 3 3 3 2 1 2 1 0 0 0 0 0 0 0 0 0 0 0 0 0 0 0 0 0 0 0 0 0 0 0 0 0
16 15 15 16 15 11 9 6 4 3 3 3 3 4 2 1 1 1 0 0 0 0 0 0 0 0 0 0 0 0 0 0 0 0 0 0 0 0 0 0 0 0 0
28 23 19 18 16 12 9 7 6 5 3 3 3 3 1 0 0 0 0 0 0 0 0 0 0 0 0 0 0 0 0 0 0 0 0 0 0 0 0 0 0 0 0
43 33 24 20 16 12 9 8 7 7 5 4 2 1 0 0 0 1 1 0 0 0 0 0 0 0 0 0 0 0 0 0 0 0 0 0 0 0 0 0 0 0 0
53 38 25 19 16 11 10 9 9 9 8 6 3 2 0 0 1 2 1 1 0 0 1 1 0 0 0 0 0 0 0 0 0 0 0 1 2 1 0 0 0 0 0
56 42 29 23 17 12 13 15 14 12 11 10 7 3 2 2 3 3 3 3 3 2 2 2 2 1 1 1 1 0 0 0 0 1 4 7 7 4 2 0 0 0 0
64 52 41 33 22 14 19 25 23 18 17 17 14 10 9 10 9 8 10 13 11 6 3 4 6 6 4 2 2 1 0 0 1 4 12 19 17 10 5 2 1 0 0
71 61 50 44 33 25 30 36 31 27 29 28 26 24 23 22 20 20 26 30 23 13 7 8 11 10 7 5 5 4 2 0 1 8 23 34 31 19 9 4 2 1 1
67 62 57 55 49 44 46 45 38 38 41 39 37 36 34 33 31 33 38 38 30 21 16 17 18 14 9 8 7 6 3 0 3 13 32 46 45 33 18 8 5 3 3
63 64 67 67 61 58 57 51 46 46 45 43 41 40 39 38 36 38 39 36 31 28 27 29 27 20 14 12 11 9 7 5 7 17 36 48 49 42 30 18 10 7 5
67 68 71 70 64 59 57 54 51 48 43 40 39 39 40 40 38 35 34 33 33 33 36 36 34 28 22 18 15 14 15 13 12 18 32 44 46 45 41 31 21 13 10
67 65 65 64 60 55 52 50 46 41 36 34 34 34 34 35 35 32 30 32 34 37 39 38 33 28 24 20 17 17 19 18 14 17 28 37 43 45 46 43 37 28 22
62 60 56 54 51 49 45 40 35 29 25 26 28 26 24 26 27 26 25 27 30 33 34 31 26 22 18 16 16 16 16 15 14 16 22 32 39 40 42 48 53 50 45
57 57 53 46 44 42 36 29 23 19 17 17 19 19 17 16 16 16 17 18 19 21 22 20 18 16 13 13 14 12 11 12 14 16 18 26 35 36 38 48 59 64 62
50 52 50 44 38 32 24 18 14 11 10 9 10 11 11 9 7 8 10 10 10 12 14 13 12 11 12 12 11 9 8 11 14 17 18 23 30 36 38 44 55 62 63
40 42 42 39 33 24 17 14 10 8 7 7 7 7 6 4 4 6 8 8 8 10 11 11 11 11 12 12 10 7 7 10 15 17 19 21 26 30 32 39 52 58 58
29 30 30 29 26 20 16 14 12 9 7 6 6 5 3 3 5 7 8 8 8 9 11 11 11 12 11 10 9 7 6 8 12 16 18 20 21 24 27 35 50 60 60
22 22 22 23 21 17 13 11 10 9 7 5 6 6 4 3 4 5 7 8 9 9 10 10 10 10 10 10 10 8 6 6 9 12 15 17 17 22 28 34 45 55 57
19 20 21 21 18 13 8 7 7 6 5 6 8 11 8 4 4 6 7 8 9 9 8 8 8 8 7 8 10 9 7 7 7 8 10 12 15 19 24 28 34 42 47
13 16 21 21 17 10 7 7 7 5 4 6 11 15 14 10 8 9 10 11 12 11 8 6 6 6 5 6 8 8 7 6 6 5 6 8 11 15 17 18 23 33 39
10 13 19 22 19 12 8 8 6 4 3 6 11 15 15 14 13 12 13 15 17 14 9 7 6 6 6 5 5 5 5 5 4 3 3 4 6 10 12 11 16 26 32
10 12 19 24 21 14 9 7 6 4 5 7 11 13 14 15 15 16 17 19 20 16 11 8 8 9 8 6 4 4 5 5 5 4 2 1 3 6 9 10 14 22 25

GEFSSE_con_probscp_120.txt.gz
Probability
1 3 7 9 6 2 0 0 0 0 0 0 0 0 0 0 0 0 0 0 0 0 0 0 0 0 0 0 0 0 0 0 0 0 0 0 0 0 0 0 0 0 0
5 6 9 10 7 3 1 0 0 0 0 0 0 0 0 0 0 0 0 0 0 0 0 0 0 0 0 0 0 0 0 0 0 0 0 0 0 0 0 0 0 0 0
10 8 10 12 9 5 2 1 1 0 0 0 0 0 0 0 0 0 0 0 0 0 0 0 0 0 0 0 0 0 0 0 0 0 0 0 0 0 0 0 0 0 0
11 10 11 14 12 6 3 2 2 1 0 0 0 0 0 0 0 0 0 0 0 0 0 0 0 0 0 0 0 0 0 0 0 0 0 0 0 0 0 0 0 0 0
12 11 14 16 12 6 3 3 3 1 0 0 0 0 0 0 0 0 0 0 0 0 0 0 0 0 0 0 0 0 0 0 0 0 0 0 0 0 0 0 0 0 0
12 12 14 16 13 8 6 6 5 3 1 0 0 0 0 0 0 0 0 0 0 0 0 0 0 0 0 0 0 0 0 0 0 0 0 0 0 0 0 0 0 0 0
12 11 13 15 15 11 9 8 7 4 2 1 1 0 0 0 0 0 0 0 0 0 0 0 0 0 0 0 0 0 0 0 0 0 0 0 0 0 0 0 0 0 0
12 12 12 14 14 12 9 7 6 4 2 2 2 1 0 0 0 0 0 0 0 0 0 0 0 0 0 0 0 0 0 0 0 0 0 0 0 0 0 0 0 0 0
14 12 11 10 9 9 7 6 4 3 3 4 3 2 1 1 0 0 0 0 1 1 0 0 0 0 0 0 0 0 0 0 0 0 0 0 0 0 0 0 0 0 0
14 11 8 6 6 6 6 5 5 6 6 6 5 4 4 2 1 0 1 2 2 2 1 0 0 0 0 0 0 0 0 0 0 0 0 0 1 1 0 0 0 0 0
12 8 5 5 5 6 4 4 6 8 7 5 4 4 4 3 1 0 2 3 3 3 2 1 1 1 1 0 0 0 0 0 0 0 0 1 4 4 1 0 0 0 0
10 7 4 4 6 6 4 2 3 4 3 2 3 5 5 3 1 1 1 2 2 2 2 3 4 4 2 0 0 1 1 1 0 0 1 3 7 8 4 1 0 0 0
10 7 5 6 7 7 6 3 0 0 1 1 3 4 4 3 2 1 1 1 1 1 3 5 6 3 1 1 0 1 2 2 1 1 2 5 10 13 9 4 1 0 0
15 13 13 13 10 8 7 4 1 0 0 1 2 2 2 1 1 2 2 2 1 2 4 6 5 2 1 1 1 1 2 4 3 2 2 6 13 16 14 9 4 1 1
24 23 21 19 14 9 5 3 2 0 0 2 3 3 2 1 1 2 2 2 2 3 3 4 3 1 1 1 1 1 2 4 4 3 2 8 15 17 14 11 7 4 4
30 28 25 20 15 8 3 2 1 1 2 4 5 5 4 3 1 1 1 1 1 2 2 2 2 2 1 1 0 1 2 2 2 1 2 6 13 15 13 11 9 8 7
30 26 23 21 15 8 4 3 2 2 2 3 5 4 4 3 1 0 0 0 0 1 1 2 2 2 2 1 1 0 0 0 0 0 1 4 7 10 11 11 11 13 13
22 19 18 17 12 7 5 4 3 3 3 3 4 4 3 2 1 0 0 0 0 0 1 1 2 2 2 2 1 0 0 0 1 0 1 2 5 7 8 8 13 19 22
15 14 12 9 7 5 5 5 5 4 4 4 4 3 2 1 0 0 0 0 0 0 0 0 1 1 2 1 1 0 0 1 1 0 0 2 4 7 7 7 13 21 24
11 10 7 5 3 3 4 4 4 4 4 3 3 2 0 0 0 0 0 0 0 0 0 0 0 0 0 0 0 0 0 1 2 1 1 2 4 6 6 6 10 15 19
9 8 5 3 2 2 2 3 2 2 1 1 1 0 0 0 0 0 0 0 0 0 0 0 0 0 0 0 0 0 0 1 2 2 2 3 3 4 4 5 7 10 11
8 7 5 3 1 1 1 1 1 0 0 0 0 0 0 0 0 0 0 0 0 0 0 0 0 0 0 0 0 0 0 0 1 2 2 2 2 3 3 4 5 7 8
5 4 3 1 0 0 0 0 0 0 0 0 0 0 0 0 0 0 0 0 0 0 0 0 0 0 0 0 0 0 0 0 0 1 1 1 2 3 3 3 3 4 6
1 1 1 0 0 0 0 0 0 0 0 0 0 0 0 0 0 0 0 0 0 0 0 0 0 0 0 0 0 0 0 0 0 0 0 1 1 2 3 3 3 4 4
0 0 0 0 0 0 0 0 0 0 0 0 0 0 0 0 0 0 0 0 0 0 0 0 0 0 0 0 0 0 0 0 0 0 0 0 0 1 1 2 3 4 4
0 0 0 0 0 0 0 0 0 0 0 0 0 0 0 0 0 0 0 0 0 0 0 0 0 0 0 0 0 0 0 0 0 0 0 0 0 0 0 1 3 4 4

GEFSSE_con_probscp_126.txt.gz
Probability
5 7 8 9 11 10 8 7 6 5 4 4 3 2 2 2 1 1 1 0 0 0 0 0 0 0 0 0 0 0 0 0 0 0 0 0 0 0 0 0 0 0 0
8 9 9 10 11 11 9 8 6 5 3 2 1 1 1 1 0 0 0 0 0 0 0 0 0 0 0 0 0 0 0 0 0 0 0 0 0 0 0 0 0 0 0
12 11 10 11 12 11 9 8 6 4 2 1 0 0 0 0 0 0 0 0 0 0 0 0 0 0 0 0 0 0 0 0 0 0 0 0 0 0 0 0 0 0 0
14 12 11 12 12 10 8 7 7 5 4 2 0 1 1 1 1 0 0 0 0 0 0 0 0 0 0 0 0 0 0 0 0 0 0 0 0 0 0 0 0 0 0
12 11 12 14 13 10 7 6 6 6 5 2 1 1 2 3 3 1 0 0 0 0 0 0 0 0 0 0 0 0 0 0 0 0 0 0 0 0 0 0 0 0 0
11 11 13 15 15 12 8 6 4 4 3 1 0 1 3 3 2 1 0 0 0 0 0 0 0 0 0 0 0 0 0 0 0 0 0 0 0 0 0 0 0 0 0
16 14 13 15 15 14 9 6 4 3 2 1 0 1 2 2 1 0 0 0 0 0 0 0 0 0 0 0 0 0 0 0 0 0 0 0 0 0 0 0 0 0 0
24 19 15 15 15 14 11 6 3 2 1 0 0 0 1 1 0 0 0 0 0 0 0 0 0 0 0 0 0 0 0 0 0 0 0 0 0 0 0 0 0 0 0
25 21 17 16 16 14 11 6 3 1 1 0 0 0 1 1 1 0 0 0 0 0 0 0 0 0 0 0 0 0 0 0 0 0 0 0 0 0 0 0 0 0 0
21 17 16 17 16 14 11 7 4 3 2 1 0 0 1 2 1 0 0 0 0 0 0 0 0 0 0 0 0 0 0 0 0 0 0 0 0 0 0 0 0 0 0
18 14 13 15 15 14 13 9 6 4 2 1 0 0 1 1 0 1 1 1 1 0 0 0 0 0 0 0 0 0 0 0 0 0 0 0 0 0 0 0 0 0 0
15 12 11 11 12 13 13 11 8 5 4 2 1 0 1 0 0 1 2 2 1 1 1 1 1 1 1 1 1 1 0 0 0 0 0 0 0 0 0 0 0 0 0
11 10 9 10 10 10 11 11 9 8 6 4 2 1 2 1 1 1 1 1 0 1 2 3 3 3 3 3 2 1 0 0 0 0 0 0 0 1 1 1 0 0 1
6 7 9 9 8 7 7 9 9 8 6 4 3 3 4 4 3 3 2 1 0 0 2 4 4 4 4 4 2 1 0 0 0 0 0 0 0 2 4 4 2 1 1
4 5 7 7 6 5 5 7 8 8 6 4 3 4 5 6 6 5 3 1 0 1 2 4 3 2 2 3 1 0 0 0 0 1 1 0 1 3 6 7 5 2 1
3 3 4 4 5 5 5 6 8 8 6 5 4 4 4 5 5 4 3 1 0 1 2 2 1 0 1 1 1 0 0 0 0 1 1 1 1 2 5 8 7 3 1
3 3 2 2 4 6 5 5 6 7 6 5 5 4 4 4 3 3 2 1 0 0 1 1 0 0 0 0 0 0 0 0 0 1 1 0 1 2 5 8 9 5 3
4 3 2 2 3 5 4 2 2 3 3 3 4 4 5 4 3 2 1 0 0 0 0 0 0 0 0 0 0 0 0 0 0 0 0 0 0 2 5 8 10 8 5
5 4 3 3 3 3 2 1 0 1 1 1 3 4 5 4 2 1 1 0 0 0 0 0 0 0 0 0 0 0 0 0 0 0 0 0 0 2 3 5 7 6 5
2 2 2 2 2 1 1 0 0 0 0 1 2 3 3 3 1 0 0 0 0 0 0 0 0 0 0 0 0 0 0 0 0 0 0 0 0 1 2 3 4 5 5
2 1 1 1 1 0 0 0 0 0 0 0 1 1 2 2 1 0 0 0 0 0 0 0 0 0 0 0 0 0 0 0 0 0 0 0 0 0 1 3 4 5 4
2 1 0 0 0 0 0 0 0 0 0 0 0 1 1 1 0 0 0 0 0 0 0 0 0 0 0 0 0 0 0 0 0 0 0 1 1 1 2 3 4 4 3
2 1 0 0 0 0 0 0 0 0 0 0 0 0 0 0 0 0 0 0 0 0 0 0 0 0 0 0 0 0 0 0 0 0 0 1 2 2 1 2 3 3 2
2 1 0 0 0 0 0 0 0 0 0 0 0 0 0 0 0 0 0 0 0 0 0 0 0 0 0 0 0 0 0 0 0 0 0 1 1 1 1 1 2 2 1
1 0 0 0 0 0 0 0 0 0 0 0 0 0 0 0 0 0 0 0 0 0 0 0 0 0 0 0 0 0 0 0 0 0 0 0 0 0 0 0 1 1 0
0 0 0 0 0 0 0 0 0 0 0 0 0 0 0 0 0 0 0 0 0 0 0 0 0 0 0 0 0 0 0 0 0 0 0 0 0 0 0 0 0 0 0

GEFSSE_con_probscp_132.txt.gz
Probability
4 6 7 4 2 3 4 5 5 4 3 3 1 0 0 0 0 0 0 0 0 0 0 0 0 0 0 0 0 0 0 0 0 0 0 0 0 0 0 0 0 0 0
5 7 7 4 3 4 5 6 6 4 3 3 2 1 0 0 0 0 0 0 0 0 0 0 0 0 0 0 0 0 0 0 0 0 0 0 0 0 0 0 0 0 0
6 8 7 5 4 5 6 7 6 4 3 3 3 2 1 0 0 0 0 0 0 0 0 0 0 0 0 0 0 0 0 0 0 0 0 0 0 0 0 0 0 0 0
7 9 8 5 5 6 6 6 6 4 3 3 3 2 1 0 0 0 0 0 0 0 0 0 0 0 0 0 0 0 0 0 0 0 0 0 0 0 0 0 0 0 0
7 8 8 7 6 7 6 5 5 5 4 3 3 2 1 0 0 0 0 0 0 0 0 0 0 0 0 0 0 0 0 0 0 0 0 0 0 0 0 0 0 0 0
7 8 8 7 5 4 4 4 5 5 4 3 2 2 1 0 0 0 0 0 0 0 0 0 0 0 0 0 0 0 0 0 0 0 0 0 0 0 0 0 0 0 0
6 7 8 6 4 2 3 4 4 3 2 1 1 1 0 0 0 0 0 0 0 0 0 0 0 0 0 0 0 0 0 0 0 0 0 0 0 0 0 0 0 0 0
4 5 7 6 3 2 2 3 2 1 1 0 0 0 0 1 0 0 0 0 0 0 0 0 0 1 0 0 0 0 0 0 0 0 0 0 0 0 0 0 0 0 0
4 5 6 5 4 3 2 1 0 0 0 0 0 0 0 0 0 0 0 0 0 0 0 0 0 0 0 0 0 0 0 0 0 0 0 0 0 0 0 0 0 0 0
7 9 8 6 4 3 2 1 0 0 0 0 0 0 0 0 0 0 0 0 0 0 0 0 0 0 0 0 0 0 0 0 0 0 0 0 0 0 0 0 0 0 0
14 14 11 8 5 3 2 2 1 0 1 1 1 1 1 0 0 0 0 0 0 0 0 0 0 0 0 0 0 0 0 0 0 0 0 0 0 0 0 0 0 0 0
25 21 15 11 7 4 4 6 5 3 2 2 3 3 1 0 0 0 0 1 1 1 1 1 0 0 0 0 0 0 0 0 0 0 0 0 0 0 0 0 0 0 0
31 26 20 15 11 8 7 9 10 8 5 4 3 3 2 1 1 1 1 2 2 3 3 3 3 2 1 1 1 0 0 0 0 1 1 1 1 0 0 0 0 0 0
31 28 23 19 16 13 11 11 12 11 8 6 4 3 2 3 3 2 3 4 4 4 5 5 6 6 4 2 1 0 0 0 0 1 1 1 0 0 0 0 1 1 1
30 29 26 22 20 18 16 15 13 12 10 8 6 5 4 5 5 4 3 4 4 4 4 4 5 6 5 3 1 0 1 1 0 1 1 1 1 0 0 0 1 1 1
29 29 27 24 22 21 20 17 14 12 9 7 6 5 5 5 6 5 3 3 3 3 2 2 3 3 2 1 0 0 1 2 1 1 1 1 1 0 0 0 1 2 2
27 28 25 21 20 20 19 16 12 10 7 5 3 3 3 4 4 3 2 1 1 2 2 1 2 2 1 0 0 0 1 2 3 2 2 3 3 2 0 0 1 3 4
26 27 23 17 17 18 17 15 11 8 5 3 1 1 1 2 2 2 1 1 2 2 2 2 2 3 2 0 0 0 1 2 3 3 3 4 5 4 2 1 1 3 4
23 25 22 17 16 16 15 14 11 6 3 1 0 0 1 2 1 1 1 2 3 3 3 3 3 3 2 1 0 0 1 2 2 1 2 2 4 5 4 3 3 3 3
19 21 21 18 16 16 13 11 9 6 2 1 0 0 1 1 0 0 1 2 2 2 3 3 3 3 2 1 0 0 1 2 2 1 0 0 1 3 4 4 5 6 6
16 19 19 17 14 13 11 8 8 6 3 1 0 0 0 0 0 0 0 1 1 1 1 2 3 3 2 1 0 0 0 1 2 1 1 1 0 1 2 4 7 10 13
15 17 18 15 12 10 9 8 7 6 4 1 0 0 0 0 0 0 0 0 0 0 0 1 2 2 2 1 0 0 0 1 2 2 2 2 1 1 2 4 7 11 14
13 14 14 13 11 9 8 7 6 5 3 1 0 0 0 0 0 0 0 0 0 0 0 0 1 1 1 0 0 0 0 0 1 2 3 2 1 1 2 4 6 8 8
11 11 10 11 11 9 6 4 3 3 2 0 0 0 0 0 0 0 0 0 0 0 0 0 0 0 0 0 0 0 0 0 0 1 1 1 1 2 2 2 3 4 4
10 9 9 9 9 7 4 2 1 1 0 0 0 0 0 0 0 0 0 0 0 0 0 0 0 0 0 0 0 0 0 0 0 0 0 0 0 1 1 1 1 2 3
10 9 8 8 7 4 2 1 0 0 0 0 0 0 0 0 0 0 0 0 0 0 0 0 0 0 0 0 0 0 0 0 0 0 0 0 0 0 0 1 2 2 3

GEFSSE_con_probscp_138.txt.gz
Probability
17 13 10 9 5 2 0 0 0 0 0 0 0 0 0 0 0 0 0 0 0 0 0 0 0 0 0 0 0 0 0 0 0 0 0 0 0 0 0 0 0 0 0
20 14 11 10 7 4 1 0 0 0 0 0 0 0 0 0 0 0 0 0 0 0 0 0 0 0 0 0 0 0 0 0 0 0 0 0 0 0 0 0 0 0 0
20 14 11 12 10 6 3 1 0 0 0 0 0 0 0 0 0 0 0 0 0 0 0 0 0 0 0 0 0 0 0 0 0 0 0 0 0 0 0 0 0 0 0
14 11 11 12 11 8 4 1 0 0 0 0 0 0 0 0 0 0 0 0 0 0 0 0 0 0 0 0 0 0 0 0 0 0 0 0 0 0 0 0 0 0 0
12 11 12 12 10 9 6 2 0 0 0 0 0 0 0 0 0 0 0 0 0 0 0 0 0 0 0 0 0 0 0 0 0 0 0 0 0 0 0 0 0 0 0
18 16 14 12 11 10 7 4 1 1 0 0 1 0 0 0 0 0 0 0 0 0 0 0 0 0 0 0 0 0 0 0 0 0 0 0 0 0 0 0 0 0 0
24 20 16 14 12 9 6 4 3 2 1 0 0 0 0 0 0 0 0 0 0 0 0 0 0 0 0 0 0 0 0 0 0 0 0 0 0 0 0 0 0 0 0
27 21 17 15 13 10 6 4 3 2 1 0 0 0 0 0 0 0 0 0 0 0 0 0 0 0 0 0 0 0 0 0 0 0 0 0 0 0 0 0 0 0 0
29 21 15 13 11 10 7 5 3 2 1 1 0 0 0 0 0 0 0 0 0 0 0 0 0 0 0 0 0 0 0 0 0 0 0 0 0 0 0 0 0 0 0
33 24 15 11 9 7 6 4 3 2 1 0 0 0 0 0 0 0 1 1 1 0 0 0 0 0 0 0 0 0 0 0 0 0 0 0 0 0 0 0 0 0 0
43 33 21 14 8 5 4 4 3 1 0 0 0 1 1 0 0 0 2 2 1 0 0 0 0 0 0 0 0 0 0 0 0 0 1 1 0 0 0 0 0 0 0
56 45 32 22 13 10 9 7 5 3 2 1 1 1 0 0 0 1 3 4 2 1 0 0 0 0 0 0 0 0 0 0 0 1 1 1 0 0 0 0 0 0 0
64 57 47 35 27 25 22 15 9 6 4 3 1 0 1 2 3 4 5 4 3 1 1 0 0 0 0 0 0 0 0 0 1 2 1 1 0 0 0 0 0 0 0
67 64 58 50 44 43 38 25 13 9 7 5 4 3 4 6 7 7 6 4 3 2 1 0 0 0 0 0 0 0 0 1 3 4 4 2 1 0 0 0 0 0 0
68 68 64 59 56 54 47 32 20 14 11 8 8 7 7 7 8 7 5 3 1 1 1 0 0 0 1 1 1 0 1 3 5 6 6 4 2 1 0 0 0 0 0
67 67 65 61 57 54 47 35 25 18 14 11 9 9 7 6 5 5 4 1 0 0 1 0 0 0 1 2 1 1 2 4 5 7 7 5 4 2 1 0 0 1 1
66 65 61 55 52 50 43 32 23 17 14 11 9 7 6 5 4 3 2 1 0 0 1 1 0 0 1 1 1 0 1 3 4 6 6 5 4 2 1 0 0 1 2
62 61 55 49 47 47 42 31 21 17 14 9 7 6 5 4 3 2 1 0 0 1 1 1 1 1 1 0 0 0 1 2 2 3 4 3 3 3 2 1 1 2 3
54 55 52 47 45 44 40 32 24 19 15 10 7 5 3 2 1 0 0 1 1 1 1 1 1 1 1 0 0 0 1 2 1 1 1 1 2 5 5 4 4 5 4
46 48 48 45 42 39 35 30 24 18 14 11 8 5 2 0 0 0 0 1 1 1 0 0 0 1 1 0 0 0 1 2 1 1 0 0 2 4 5 5 6 6 5
38 39 39 38 35 32 27 24 21 15 10 8 5 4 2 0 0 0 0 0 0 0 0 0 0 0 0 0 0 0 0 1 1 1 0 0 1 2 3 4 6 7 7
31 30 30 29 27 24 22 21 18 12 6 3 2 1 1 0 0 0 0 0 0 0 0 0 0 0 0 0 0 0 0 0 1 1 1 0 0 1 2 2 4 7 8
27 26 25 26 24 23 22 20 16 10 4 2 2 1 1 0 0 0 0 0 0 0 0 0 0 0 0 0 0 0 0 0 0 0 1 0 0 1 1 1 2 4 5
24 24 24 25 25 25 23 19 14 9 5 4 3 2 1 0 0 0 0 0 0 0 0 0 0 0 0 0 0 0 0 0 0 0 0 0 0 0 0 0 0 1 1
20 20 22 24 25 24 21 18 13 8 5 4 3 3 2 0 0 0 0 0 0 0 0 0 0 0 0 0 0 0 0 0 0 0 0 0 0 0 0 1 0 0 0
19 18 20 24 27 24 21 18 13 7 4 3 3 3 1 0 0 0 0 0 0 0 0 0 0 0 0 0 0 0 0 0 0 0 0 0 0 0 0 1 0 0 0

GEFSSE_con_probscp_144.txt.gz
Probability
9 9 13 16 13 8 4 1 0 0 0 0 0 0 0 0 0 0 0 0 0 0 0 0 0 0 0 0 0 0 0 0 0 0 0 0 0 0 0 0 0 0 0
10 10 12 15 13 9 4 2 1 0 0 0 0 0 0 0 0 0 0 0 0 0 0 0 0 0 0 0 0 0 0 0 0 0 0 0 0 0 0 0 0 0 0
15 13 13 15 13 9 6 4 2 1 0 0 0 0 0 0 0 0 0 0 0 0 0 0 0 0 0 0 0 0 0 0 0 0 0 0 0 0 0 0 0 0 0
20 17 15 16 13 9 6 6 4 1 0 0 0 0 0 0 0 0 0 0 0 0 0 0 0 0 0 0 0 0 0 0 0 0 0 0 0 0 0 0 0 0 0
24 21 19 18 14 9 7 6 5 2 0 0 0 0 0 0 0 0 0 0 0 0 0 0 0 0 0 0 0 0 0 0 0 0 0 0 0 0 0 0 0 0 0
30 26 22 20 15 10 8 7 5 3 1 0 0 0 0 0 0 0 0 0 0 0 0 0 0 0 0 0 0 0 0 0 0 0 0 0 0 0 0 0 0 0 0
35 28 23 21 16 11 9 7 6 4 2 0 0 0 0 0 0 0 0 0 0 0 0 0 0 0 0 0 0 0 0 0 0 0 0 0 0 0 0 0 0 0 0
39 30 23 19 15 11 8 6 5 4 3 1 0 0 0 0 0 0 0 0 0 0 0 0 0 0 0 0 0 0 0 0 0 0 0 0 0 0 0 0 0 0 0
39 32 24 19 14 9 7 5 4 3 3 2 1 0 0 0 0 0 0 0 0 0 0 0 0 0 0 0 0 0 0 0 0 0 0 0 0 0 0 0 0 0 0
35 32 27 21 14 9 7 5 3 2 2 2 1 0 1 0 0 0 0 0 0 0 0 0 0 0 0 0 0 0 0 0 0 0 0 0 0 0 0 0 0 0 0
30 29 26 20 13 9 6 4 3 2 1 1 1 0 0 0 0 0 0 0 1 0 0 0 0 0 0 0 0 0 0 0 0 0 0 0 0 0 0 0 0 0 0
26 24 19 14 10 8 6 4 3 2 1 1 1 0 0 0 0 0 0 0 0 0 0 0 0 0 0 0 0 0 0 0 0 0 0 0 0 0 0 0 0 0 0
26 21 14 8 6 5 5 3 2 1 0 1 1 0 0 0 0 0 0 0 0 0 0 0 0 0 0 0 0 0 0 0 0 0 0 0 0 0 0 0 0 0 0
29 24 14 7 4 4 3 1 1 0 0 0 0 0 0 0 0 0 0 0 0 0 0 0 1 0 0 0 0 0 0 0 0 0 0 0 0 0 0 0 0 0 0
30 25 16 8 4 4 2 0 0 0 0 0 0 0 0 0 0 0 0 0 0 0 0 0 0 0 0 0 0 0 0 0 0 0 0 0 0 0 0 0 0 0 0
28 24 16 10 6 4 2 1 0 0 0 0 0 0 0 0 0 0 0 0 0 0 0 0 0 0 0 0 0 0 0 0 0 0 0 0 0 0 0 0 1 1 0
27 23 17 14 9 5 3 1 0 0 0 0 0 0 0 0 0 0 0 0 0 0 0 0 0 0 0 0 0 0 0 0 0 0 0 0 0 0 0 0 1 1 1
26 24 22 18 11 5 3 1 0 0 0 0 0 0 0 0 0 0 0 0 0 0 0 0 0 0 0 0 0 0 0 0 0 0 0 0 0 0 0 0 1 1 0
23 26 27 21 12 7 5 3 1 1 1 1 1 1 1 0 0 0 0 0 0 0 0 0 0 0 0 0 0 0 0 0 0 0 0 0 0 0 0 0 0 0 0
21 25 27 22 13 10 10 8 4 2 2 2 2 3 2 1 0 0 0 0 0 0 0 0 0 0 0 0 0 0 0 0 0 0 0 0 0 0 0 0 0 0 0
20 22 23 20 15 13 13 11 6 3 3 3 3 2 1 0 0 0 0 0 0 0 0 0 0 0 0 0 0 0 0 0 0 0 0 0 0 0 0 0 0 0 0
18 19 20 20 18 15 13 9 6 3 3 3 2 1 0 0 0 0 0 0 0 0 0 0 0 0 0 0 0 0 0 0 0 0 0 0 0 0 0 0 0 0 0
16 17 19 19 19 16 11 8 5 3 2 1 1 0 0 0 0 0 0 0 0 0 0 0 0 0 0 0 0 0 0 0 0 0 0 0 0 0 0 0 0 0 0
14 15 17 18 18 14 10 8 5 2 1 0 0 0 0 0 0 0 0 0 0 0 0 0 0 0 0 0 0 0 0 0 0 0 0 0 0 0 0 0 0 0 0
11 13 15 15 15 13 10 7 4 1 0 0 0 0 0 0 0 0 0 0 0 0 0 0 0 0 0 0 0 0 0 0 0 0 0 0 0 0 0 0 0 0 0
9 11 13 12 12 12 9 5 3 1 0 0 0 0 0 0 0 0 0 0 0 0 0 0 0 0 0 0 0 0 0 0 0 0 0 0 0 0 0 0 0 0 0

GEFSSE_con_probscp_150.txt.gz
Probability
6 7 7 6 4 2 3 3 1 0 0 0 0 0 0 0 0 0 0 0 0 0 0 0 0 0 0 0 0 0 0 0 0 0 0 0 0 0 0 0 0 0 0
8 7 7 7 5 3 3 3 1 0 0 0 0 0 0 0 0 0 0 0 0 0 0 0 0 0 0 0 0 0 0 0 0 0 0 0 0 0 0 0 0 0 0
10 8 8 9 7 4 2 1 0 0 0 0 0 0 0 0 0 0 0 0 0 0 0 0 0 0 0 0 0 0 0 0 0 0 0 0 0 0 0 0 0 0 0
13 11 10 11 8 3 1 0 0 0 0 0 0 0 0 0 0 0 0 0 0 0 0 0 0 0 0 0 0 0 0 0 0 0 0 0 0 0 0 0 0 0 0
18 15 13 13 10 5 1 0 0 0 0 0 0 0 0 0 0 0 0 0 0 0 0 0 0 0 0 0 0 0 0 0 0 0 0 0 0 0 0 0 0 0 0
22 18 15 14 12 8 4 1 0 0 0 0 0 0 0 0 0 0 0 0 0 0 0 0 0 0 0 0 0 0 0 0 0 0 0 0 0 0 0 0 0 0 0
24 20 17 16 14 10 6 3 1 0 0 0 0 0 0 0 0 0 0 0 0 0 0 0 0 0 0 0 0 0 0 0 0 0 0 0 0 0 0 0 0 0 0
27 23 19 18 15 10 7 5 3 1 0 0 0 0 0 0 0 0 0 0 0 0 0 0 0 0 0 0 0 0 0 0 0 0 0 0 0 0 0 0 0 0 0
29 26 23 19 15 10 7 6 4 1 0 0 0 0 0 0 0 0 0 0 0 0 0 0 0 0 0 0 0 0 0 0 0 0 0 0 0 0 0 0 0 0 0
27 28 26 20 13 8 6 5 2 1 0 0 0 0 0 0 0 0 0 0 0 0 0 0 0 0 0 0 0 0 0 0 0 0 0 0 0 0 0 0 0 0 0
24 24 23 20 13 8 5 3 1 0 0 0 0 0 0 0 0 0 0 0 0 0 0 0 0 0 0 0 0 0 0 0 0 0 0 0 0 0 0 0 0 0 0
22 20 18 17 14 9 5 2 0 0 0 0 0 0 0 0 0 0 0 0 0 0 0 0 0 0 0 0 0 0 0 0 0 0 0 0 0 0 0 0 0 0 0
23 19 15 14 14 11 7 4 1 0 0 0 0 0 0 0 0 0 0 0 0 0 0 0 0 0 0 0 0 0 0 0 0 0 0 0 0 0 0 0 0 0 0
21 18 13 13 13 11 9 6 2 0 0 0 0 0 0 0 0 0 0 0 0 0 0 0 0 0 0 0 0 0 0 0 0 0 0 0 0 0 0 0 0 0 0
19 18 15 15 14 11 9 7 3 1 0 0 0 0 0 0 0 0 0 0 0 0 0 0 0 0 0 0 0 0 0 0 0 0 0 0 0 0 0 0 0 0 0
19 18 17 17 15 12 9 6 3 1 0 0 0 0 0 0 0 0 0 0 0 0 0 0 0 0 0 0 0 0 0 0 0 0 0 0 0 0 0 0 0 0 0
16 17 17 17 15 12 9 5 2 1 0 0 0 0 0 0 0 0 0 0 0 0 0 0 0 0 0 0 0 0 0 0 0 0 0 0 0 0 0 0 0 0 0
12 13 15 17 15 12 9 6 3 1 0 0 0 0 0 0 0 0 0 0 0 0 0 0 0 0 0 0 0 0 0 0 0 0 0 0 0 0 0 0 0 0 0
10 11 14 16 14 12 8 5 2 1 0 0 0 0 0 0 0 0 0 0 0 0 0 0 0 0 0 0 0 0 0 0 0 0 0 0 0 0 0 0 0 0 0
8 9 11 12 11 9 7 3 1 0 0 0 0 0 0 0 0 0 0 0 0 0 0 0 0 0 0 0 0 0 0 0 0 0 0 0 0 0 0 0 0 0 0
8 9 9 8 7 6 5 3 2 1 0 0 0 0 0 0 0 0 0 0 0 0 0 0 0 0 0 0 0 0 0 0 0 0 0 0 0 0 0 0 0 0 0
9 9 9 7 5 4 4 4 4 2 1 1 1 0 0 0 0 0 0 0 0 0 0 0 0 0 0 0 0 0 0 0 0 0 0 0 0 0 0 0 0 0 0
9 9 8 5 4 3 4 6 5 3 2 2 2 1 0 0 0 0 0 0 0 0 0 0 0 0 0 0 0 0 0 0 0 0 0 0 0 0 0 0 0 0 0
8 8 6 5 3 3 4 6 6 4 3 3 3 2 0 0 0 0 0 0 0 0 0 0 0 0 0 0 0 0 0 0 0 0 0 0 0 0 0 0 0 0 0
7 7 6 5 3 3 5 6 6 4 3 2 2 1 0 0 0 0 0 0 0 0 0 0 0 0 0 0 0 0 0 0 0 0 0 0 0 0 0 0 0 0 0
6 6 6 5 4 4 6 6 6 5 2 1 1 0 0 0 0 0 0 0 0 0 0 0 0 0 0 0 0 0 0 0 0 0 0 0 0 0 0 0 0 0 0

GEFSSE_con_probscp_156.txt.gz
Probability
7 7 5 1 0 0 0 0 0 0 0 0 0 0 0 0 0 0 0 0 0 0 0 0 0 0 0 0 0 0 0 0 0 0 0 0 0 0 0 0 0 0 0
10 9 6 2 0 0 0 0 0 0 0 0 0 0 0 0 0 0 0 0 0 0 0 0 0 0 0 0 0 0 0 0 0 0 0 0 0 0 0 0 0 0 0
12 11 7 3 1 0 0 0 0 0 0 0 0 0 0 0 0 0 0 0 0 0 0 0 0 0 0 0 0 0 0 0 0 0 0 0 0 0 0 0 0 0 0
11 10 8 4 1 0 0 0 0 0 0 0 0 0 0 0 0 0 0 0 0 0 0 0 0 0 0 0 0 0 0 0 0 0 0 0 0 0 0 0 0 0 0
10 10 8 5 1 0 0 1 0 0 0 0 0 0 0 0 0 0 0 0 0 0 0 0 0 0 0 0 0 0 0 0 0 0 0 0 0 0 0 0 0 0 0
8 9 9 6 2 0 0 1 0 0 0 0 0 0 0 0 0 0 0 0 0 0 0 0 0 0 0 0 0 0 0 0 0 0 0 0 0 0 0 0 0 0 0
7 9 11 8 2 0 0 1 0 0 0 0 0 0 0 0 0 0 0 0 0 0 0 0 0 0 0 0 0 0 0 0 0 0 0 0 0 0 0 0 0 0 0
7 9 11 8 3 1 0 0 0 0 0 0 0 0 0 0 0 0 0 0 0 0 0 0 0 0 0 0 0 0 0 0 0 0 0 0 0 0 0 0 0 0 0
8 9 9 7 5 4 2 0 0 0 0 0 0 0 0 0 0 0 0 0 0 0 0 0 0 0 0 0 0 0 0 0 0 0 0 0 0 0 0 0 0 0 0
10 10 9 7 7 7 5 1 0 0 0 0 0 0 0 0 0 0 0 0 0 0 0 0 0 0 0 0 0 0 0 0 0 0 0 0 0 0 0 0 0 0 0
15 13 10 8 7 7 6 2 0 0 0 0 0 0 0 0 0 0 0 0 0 0 0 0 0 0 0 0 0 0 0 0 0 0 0 0 0 0 0 0 0 0 0
22 20 15 10 7 6 5 4 3 2 1 0 0 0 0 0 0 0 0 0 0 0 0 0 0 0 0 0 0 0 0 0 0 0 0 0 0 0 0 0 0 0 0
30 28 23 18 13 9 8 8 8 7 4 1 1 0 0 0 0 0 0 0 0 0 0 0 0 0 0 0 0 0 0 0 0 0 0 0 0 0 0 0 0 0 0
34 32 29 25 23 19 16 13 12 10 7 3 2 1 0 0 0 0 0 0 0 0 0 0 0 0 0 0 0 0 0 0 0 0 0 0 0 0 0 0 0 0 0
34 32 29 27 26 26 23 20 16 14 11 6 3 1 0 0 0 0 0 0 0 0 0 0 0 0 0 0 0 0 0 0 0 0 0 0 0 0 0 0 0 0 0
32 31 28 25 24 25 25 24 23 20 16 10 6 3 1 1 0 0 0 0 0 0 0 0 0 0 0 0 0 0 0 0 0 0 0 0 0 0 0 0 0 0 0
30 29 27 24 22 23 25 25 25 23 18 12 7 4 2 1 0 0 1 1 0 0 0 0 0 0 0 0 0 0 0 0 0 0 0 0 0 0 0 0 0 0 0
24 25 25 22 20 22 24 25 24 22 18 12 6 3 2 1 0 1 2 1 0 0 0 0 0 0 0 0 0 0 0 0 0 0 0 0 0 0 0 0 0 0 0
19 20 21 20 21 22 23 25 25 22 17 11 5 3 2 1 0 1 1 1 0 0 0 0 0 0 0 0 0 0 0 0 0 0 0 0 0 0 0 0 0 0 0
20 19 19 20 23 24 26 27 26 20 13 7 4 3 1 0 0 0 0 0 0 0 0 0 0 0 0 0 0 0 0 0 0 0 0 0 0 0 0 0 1 0 0
25 23 21 23 27 31 32 31 28 21 13 8 6 4 2 0 0 0 0 0 0 0 0 0 0 0 0 0 0 0 0 0 0 0 0 0 0 0 0 0 0 0 0
30 28 26 28 33 37 39 38 33 26 18 12 9 7 4 1 0 0 0 0 0 0 0 0 0 0 0 0 0 0 0 0 0 0 0 0 0 0 0 0 0 0 0
28 27 27 30 35 39 41 40 33 27 21 15 11 9 7 3 1 0 0 0 0 0 0 0 0 0 0 0 0 0 0 0 0 0 0 0 0 0 0 0 0 0 0
23 22 23 28 32 35 37 34 28 23 20 15 12 12 10 6 3 0 0 0 0 0 0 0 0 0 0 0 0 0 0 0 0 0 0 0 0 0 0 0 0 0 0
18 17 18 22 25 28 29 28 24 21 20 18 15 15 13 9 4 1 0 0 0 0 0 0 0 0 0 0 0 0 0 0 0 0 0 0 0 0 0 0 0 0 0
16 15 16 18 20 23 26 25 23 22 22 20 17 16 13 9 5 2 0 0 0 0 0 0 0 0 0 0 0 0 0 0 0 0 0 0 0 0 0 0 0 0 0

GEFSSE_con_probscp_162.txt.gz
Probability
19 15 12 7 1 0 0 0 0 0 0 0 0 0 0 0 0 0 0 0 0 0 0 0 0 0 0 0 0 0 0 0 0 0 0 0 0 0 0 0 0 0 0
23 19 15 9 3 0 0 0 0 0 0 0 0 0 0 0 0 0 0 0 0 0 0 0 0 0 0 0 0 0 0 0 0 0 0 0 0 0 0 0 0 0 0
27 22 18 13 5 0 0 0 0 0 0 0 0 0 0 0 0 0 0 0 0 0 0 0 0 0 0 0 0 0 0 0 0 0 0 0 0 0 0 0 0 0 0
26 22 19 15 6 1 0 0 0 0 0 0 0 0 0 0 0 0 0 0 0 0 0 0 0 0 0 0 0 0 0 0 0 0 0 0 0 0 0 0 0 0 0
23 22 22 17 8 1 0 0 0 0 0 0 0 0 0 0 0 0 0 0 0 0 0 0 0 0 0 0 0 0 0 0 0 0 0 0 0 0 0 0 0 0 0
23 24 25 20 9 2 0 0 0 0 0 0 0 0 0 0 0 0 0 0 0 0 0 0 0 0 0 0 0 0 0 0 0 0 0 0 0 0 0 0 0 0 0
27 25 24 20 11 3 1 1 0 0 0 0 0 0 0 0 0 0 0 0 0 0 0 0 0 0 0 0 0 0 0 0 0 0 0 0 0 0 0 0 0 0 0
35 26 20 17 10 3 1 1 0 0 0 0 0 0 0 0 0 0 0 0 0 0 0 0 0 0 0 0 0 0 0 0 0 0 0 0 0 0 0 0 0 0 0
39 27 16 12 7 4 2 1 0 0 0 0 0 0 0 0 0 0 0 0 0 0 0 0 0 0 0 0 0 0 0 0 0 0 0 0 0 0 0 0 0 0 0
38 26 15 11 8 4 3 2 1 0 0 0 0 0 0 0 0 0 0 0 0 0 0 0 0 0 0 0 0 0 0 0 0 0 0 0 0 0 0 0 0 0 0
40 30 19 16 11 6 3 3 1 0 0 0 0 0 0 0 0 0 0 0 0 0 0 0 0 0 0 0 0 0 0 0 0 0 0 0 0 0 0 0 0 0 0
51 39 29 23 15 8 6 5 3 1 0 0 0 0 0 0 0 0 0 0 0 0 0 0 0 0 0 0 0 0 0 0 0 0 0 0 0 0 0 0 0 0 0
59 49 40 32 22 16 13 9 5 2 1 0 0 0 0 0 0 0 0 0 0 0 0 0 0 0 0 0 0 0 0 0 0 0 0 0 0 0 0 0 0 0 0
64 59 52 44 35 30 24 16 10 6 4 2 3 2 1 1 0 0 0 0 0 0 0 0 0 0 0 0 0 0 0 0 0 0 0 0 0 0 0 0 0 0 0
67 67 63 55 49 44 35 24 17 13 10 9 7 4 3 2 2 1 0 0 0 0 0 0 0 0 0 0 0 0 0 0 0 0 0 0 0 0 0 0 0 0 0
68 71 68 60 56 51 41 30 23 19 17 16 14 9 5 4 4 2 1 0 0 0 0 0 0 0 0 0 0 1 0 0 0 0 0 0 0 0 1 1 1 1 0
70 72 68 60 55 52 43 33 28 26 24 23 21 15 9 6 6 3 1 0 1 1 1 0 0 0 0 0 0 0 0 0 0 0 0 0 0 0 1 2 2 1 1
73 74 68 59 55 52 45 38 34 33 32 28 25 18 12 8 6 4 3 3 2 2 1 0 0 0 0 0 0 0 0 0 0 0 0 0 0 1 1 1 1 1 0
73 72 67 61 58 53 46 42 40 40 36 31 26 20 15 11 7 6 7 6 2 1 0 0 0 0 0 0 0 0 0 0 0 0 0 0 0 1 0 0 0 0 0
68 68 65 63 60 54 46 41 41 41 36 31 27 23 19 14 9 8 10 6 2 0 0 0 0 0 0 0 0 0 0 0 0 0 0 0 0 0 0 0 0 0 0
61 61 60 59 57 53 45 40 40 39 38 34 28 24 21 17 11 9 8 5 1 0 0 0 0 0 0 0 0 0 0 0 0 0 0 0 0 0 0 0 0 0 1
55 56 55 53 51 49 45 40 39 40 40 37 30 25 21 17 11 7 6 4 1 0 0 0 0 0 0 0 0 0 0 0 0 0 0 0 0 0 0 0 0 0 1
54 54 52 50 49 48 44 41 40 41 40 36 31 25 20 17 12 8 6 4 1 0 0 0 0 0 0 0 0 0 0 0 0 0 0 0 0 0 0 0 0 0 1
53 51 49 49 50 49 45 41 39 38 36 34 31 25 21 19 15 11 9 6 2 0 0 0 0 0 0 0 0 0 0 0 0 0 0 0 0 0 0 0 0 0 0
48 46 45 46 48 47 44 40 38 35 33 33 30 27 24 21 17 13 12 10 5 1 1 1 1 0 0 0 0 0 0 0 0 0 0 0 0 0 0 0 0 0 1
45 43 41 43 45 46 43 39 36 35 34 32 30 28 25 22 18 15 14 13 7 2 2 3 2 1 0 0 0 0 0 0 0 0 0 0 0 0 0 0 0 1 1